Date,TemperatureHighF,TemperatureAvgF,TemperatureLowF,DewpointHighF,DewpointAvgF,DewpointLowF,HumidityHigh,HumidityAvg,HumidityLow,PressureMaxIn,PressureMinIn,WindSpeedMaxMPH,WindSpeedAvgMPH,GustSpeedMaxMPH,PrecipitationSumIn
2013-1-1,60,52,44,52,46,40,93,82,62,30.12,29.80,12,2,14,0.00
2013-1-2,54,47,41,52,45,38,97,93,88,30.17,29.76,10,2,14,0.00
2013-1-3,45,41,30,39,36,28,93,82,73,30.25,29.98,8,1,13,0.00
2013-1-4,52,36,25,38,30,22,93,78,43,30.31,30.04,10,1,13,0.00
2013-1-5,50,36,24,33,27,20,90,74,42,30.39,30.11,6,1,12,0.00
2013-1-6,50,45,34,44,39,31,89,82,67,30.27,29.93,6,0,9,0.00
2013-1-7,52,41,30,43,34,28,90,78,53,30.45,29.98,13,2,17,0.00
2013-1-8,62,45,30,56,42,28,95,88,78,30.45,30.21,8,1,10,0.00
2013-1-9,70,54,39,58,50,37,98,87,62,30.43,30.20,4,0,4,0.00
2013-1-10,60,51,43,53,42,34,97,74,44,30.51,30.25,14,2,16,0.00
2013-1-11,74,59,44,65,54,39,96,85,65,30.43,30.14,11,1,16,0.00
2013-1-12,75,62,54,68,60,53,98,92,74,30.18,30.09,9,1,10,0.00
2013-1-13,76,62,55,68,59,54,100,91,71,30.17,30.09,6,0,14,0.00
2013-1-14,75,62,50,69,59,49,100,93,67,30.20,30.10,9,1,17,0.00
2013-1-15,67,58,53,63,56,51,100,95,85,30.20,30.07,7,1,12,0.00
2013-1-16,73,61,51,68,59,50,100,92,73,60.21,29.96,14,2,22,0.00
2013-1-17,70,54,42,67,53,40,100,96,86,60.13,29.82,15,3,27,0.00
2013-1-18,48,40,28,41,35,25,97,84,54,60.07,29.99,16,3,21,0.00
2013-1-19,58,41,27,46,37,25,97,86,59,60.65,30.17,5,0,7,0.00
2013-1-20,65,46,36,49,39,33,97,79,33,60.32,29.99,15,2,18,0.00
2013-1-21,64,45,30,52,39,27,93,81,56,60.21,29.88,11,1,15,0.00
2013-1-22,46,38,22,39,17,8,93,45,24,60.07,29.93,13,3,21,0.00
2013-1-23,42,29,21,18,11,2,79,51,27,60.42,30.12,11,1,12,0.00
2013-1-24,43,33,24,33,16,3,86,51,30,60.28,29.99,19,5,26,0.00
2013-1-25,44,32,21,28,18,2,78,59,37,60.64,30.10,8,1,12,0.00
2013-1-26,40,34,29,31,28,24,86,78,65,60.28,30.12,7,2,11,0.00
2013-1-27,43,33,26,28,24,20,87,70,45,60.54,30.40,13,2,15,0.00
2013-1-28,60,44,26,54,37,21,91,77,54,60.67,30.26,6,0,11,0.00
2013-1-29,75,60,50,63,56,49,99,87,56,60.40,30.13,13,2,18,0.00
2013-1-30,74,64,53,67,61,52,98,88,74,60.30,29.62,18,4,35,0.00
2013-1-31,68,52,31,65,41,23,95,68,27,59.36,29.51,22,7,32,0.00